Sheringham Point, British Columbia

7:22 AM PDT on October 23, 2017 (GMT -0700)
Sheringham Point

Weather History for CWSP - October, 2013

Change the Weather History Date:

Sunday, October 13, 2013

  Actual Average Record
Temperature  
Mean Temperature 49 °F -  
Max Temperature 53 °F - - ()
Min Temperature 45 °F - - ()
Degree Days  
Heating Degree Days 16    
Moisture  
Dew Point 45 °F    
Average Humidity 85    
Maximum Humidity 93    
Minimum Humidity 68    
Precipitation  
Precipitation 0.00 in - - ()
Sea Level Pressure  
Sea Level Pressure 30.30 in    
Wind  
Wind Speed 2 mph ()    
Max Wind Speed 7 mph    
Max Gust Speed -    
T = Trace of Precipitation, MM = Missing Value Source: Averaged Metar Reports

Daily Weather History Graph

Daily Weather History Graph

Search for Another Location

Airport or City:

Trip Planner

Search our weather history database for the weather conditions in past years. The results will help you decide how hot, cold, wet, or windy it might be!

Date:

Astronomy

Oct. 13, 2013 Rise Set
Actual Time 7:33 AM PDT 6:29 PM PDT
Civil Twilight 7:01 AM PDT 7:01 PM PDT
Nautical Twilight 6:25 AM PDT 7:37 PM PDT
Astronomical Twilight 5:48 AM PDT 8:13 PM PDT
Moon 3:46 PM PDT (10/13) 1:24 AM PDT (10/13)
Length of Visible Light 11h 59m
Length of Day
10h 56m
Waxing Gibbous, 70% of the Moon is Illuminated
Oct 13
Waxing Gibbous
Oct 18
Full
Oct 26
Last Quarter
Nov 3
New
Nov 9
First Quarter

Hourly Weather History & Observations

Time (PDT) Temp. Dew Point Humidity Pressure Visibility Wind Dir Wind Speed Gust Speed Precip Events Conditions
12:00 AM 48.7 °F 45.7 °F 89% 30.22 in - East 2.3 mph - N/A   Unknown
1:00 AM 49.1 °F 46.6 °F 91% 30.23 in - WNW 3.5 mph - N/A   Unknown
2:00 AM 46.9 °F 44.6 °F 92% 30.25 in - East 1.2 mph - N/A   Unknown
3:00 AM 47.3 °F 44.8 °F 91% 30.25 in - Calm Calm - N/A   Unknown
4:00 AM 47.3 °F 45.1 °F 92% 30.25 in - Calm Calm - N/A   Unknown
5:00 AM 47 °F 44 °F 86% 30.26 in - Calm Calm - -  
5:00 AM 46.8 °F 44.1 °F 90% 30.26 in - Calm Calm - N/A   Unknown
6:00 AM 46.9 °F 45.0 °F 93% 30.27 in - North 1.2 mph - N/A   Unknown
7:00 AM 46.0 °F 44.1 °F 93% 30.28 in - ENE 1.2 mph - N/A   Unknown
8:00 AM 47.1 °F 44.8 °F 92% 30.29 in - Calm Calm - N/A   Unknown
9:00 AM 48.2 °F 44.4 °F 87% 30.31 in - WNW 4.6 mph - N/A   Unknown
10:00 AM 48.6 °F 44.2 °F 85% 30.32 in - ESE 4.6 mph - N/A   Unknown
11:00 AM 51 °F 44 °F 68% 30.32 in - East 6.9 mph - -  
11:00 AM 50.7 °F 43.5 °F 76% 30.32 in - East 6.9 mph - N/A   Unknown
12:00 PM 50.7 °F 45.1 °F 81% 30.32 in - East 4.6 mph - N/A   Unknown
1:00 PM 50.7 °F 44.8 °F 80% 30.32 in - ESE 4.6 mph - N/A   Unknown
2:00 PM 50.9 °F 45.1 °F 81% 30.31 in - ESE 4.6 mph - N/A   Unknown
3:00 PM 51.3 °F 45.7 °F 81% 30.31 in - ESE 4.6 mph - N/A   Unknown
4:00 PM 52.0 °F 46.8 °F 82% 30.31 in - ESE 2.3 mph - N/A   Unknown
5:00 PM 51 °F 47 °F 80% 30.32 in - ESE 3.5 mph - -  
5:00 PM 51.4 °F 46.6 °F 83% 30.32 in - ESE 3.5 mph - N/A   Unknown
6:00 PM 51.8 °F 46.0 °F 81% 30.32 in - West 1.2 mph - N/A   Unknown
7:00 PM 50.4 °F 46.8 °F 87% 30.33 in - East 1.2 mph - N/A   Unknown
8:00 PM 50.4 °F 45.9 °F 85% 30.34 in - WNW 4.6 mph - N/A   Unknown
9:00 PM 48.9 °F 44.6 °F 85% 30.34 in - East 1.2 mph - N/A   Unknown
10:00 PM 50.0 °F 43.7 °F 79% 30.35 in - East 1.2 mph - N/A   Unknown
11:00 PM 48 °F 43 °F 78% 30.36 in - East 1.2 mph - -  
11:00 PM 48.4 °F 43.3 °F 83% 30.36 in - East 1.2 mph - N/A   Unknown